| time (UTC) | temp F | wind direction | speed MPH | gust MPH | rain 1hr in | rain 24hr in | rain mn in | humidity % | barometer mb |
| 20260507103904 | 81 | 58 | 6.0 | 7.0 | 0.00 | 0.07 | 0.07 | 88 | 1010.8 |
| 20260507103401 | 81 | 57 | 8.0 | 10.0 | 0.47 | 0.03 | 0.03 | 86 | 1010.8 |
| 20260507102857 | 82 | 73 | 10.0 | 13.0 | 0.00 | 0.02 | 0.02 | 84 | 1010.8 |
| 20260507102354 | 82 | 63 | 9.0 | 11.0 | 0.00 | 0.02 | 0.02 | 82 | 1010.8 |
| 20260507101850 | 83 | 48 | 8.0 | 12.0 | 0.00 | 0.02 | 0.02 | 81 | 1010.8 |
| 20260507101350 | 83 | 47 | 10.0 | 13.0 | 0.00 | 0.02 | 0.02 | 82 | 1010.5 |
| 20260507100848 | 83 | 35 | 6.0 | 8.0 | 0.00 | 0.02 | 0.02 | 82 | 1010.5 |
| 20260507100346 | 83 | 45 | 5.0 | 7.0 | 0.00 | 0.02 | 0.02 | 81 | 1010.5 |
| 20260507095843 | 82 | 36 | 6.0 | 8.0 | 0.00 | 0.02 | 0.02 | 81 | 1010.5 |
| 20260507095340 | 82 | 22 | 6.0 | 9.0 | 0.00 | 0.02 | 0.02 | 81 | 1010.5 |
| 20260507094837 | 82 | 37 | 7.0 | 9.0 | 0.00 | 0.02 | 0.02 | 82 | 1010.5 |
| 20260507094333 | 83 | 42 | 8.0 | 10.0 | 0.00 | 0.02 | 0.02 | 81 | 1010.5 |
| 20260507093831 | 82 | 53 | 10.0 | 12.0 | 0.00 | 0.02 | 0.02 | 82 | 1010.5 |
| 20260507093329 | 82 | 40 | 6.0 | 9.0 | 0.00 | 0.02 | 0.02 | 82 | 1010.5 |
| 20260507092826 | 82 | 44 | 7.0 | 9.0 | 0.00 | 0.02 | 0.02 | 82 | 1010.5 |
| 20260507092323 | 82 | 52 | 7.0 | 9.0 | 0.00 | 0.02 | 0.02 | 82 | 1010.1 |
| 20260507091819 | 82 | 53 | 8.0 | 11.0 | 0.00 | 0.02 | 0.02 | 82 | 1010.5 |
| 20260507091316 | 82 | 49 | 6.0 | 9.0 | 0.00 | 0.02 | 0.02 | 82 | 1010.5 |
| 20260507090811 | 82 | 54 | 7.0 | 9.0 | 0.00 | 0.02 | 0.02 | 82 | 1010.1 |
| 20260507090308 | 82 | 47 | 6.0 | 8.0 | 0.00 | 0.02 | 0.02 | 82 | 1010.5 |
| 20260507085805 | 82 | 30 | 6.0 | 9.0 | 0.00 | 0.02 | 0.02 | 82 | 1010.1 |
| 20260507085305 | 82 | 50 | 6.0 | 8.0 | 0.00 | 0.02 | 0.02 | 82 | 1010.1 |
| 20260507084759 | 82 | 41 | 5.0 | 6.0 | 0.00 | 0.02 | 0.02 | 82 | 1010.1 |
| 20260507084255 | 82 | 55 | 6.0 | 7.0 | 0.00 | 0.02 | 0.02 | 81 | 1010.1 |
| 20260507083753 | 82 | 77 | 6.0 | 12.0 | 0.00 | 0.02 | 0.02 | 81 | 1009.8 |
| 20260507083249 | 83 | 73 | 8.0 | 11.0 | 0.00 | 0.02 | 0.02 | 80 | 1009.8 |
| 20260507082745 | 83 | 59 | 11.0 | 13.0 | 0.00 | 0.02 | 0.02 | 79 | 1009.8 |
| 20260507082241 | 84 | 62 | 15.0 | 19.0 | 0.00 | 0.02 | 0.02 | 77 | 1009.8 |
| 20260507081738 | 84 | 66 | 11.0 | 15.0 | 0.00 | 0.02 | 0.02 | 79 | 1009.4 |
| 20260507081234 | 84 | 61 | 11.0 | 15.0 | 0.00 | 0.02 | 0.02 | 79 | 1009.4 |
| 20260507080731 | 84 | 64 | 11.0 | 14.0 | 0.00 | 0.02 | 0.02 | 78 | 1009.4 |
| 20260507080227 | 84 | 39 | 12.0 | 16.0 | 0.00 | 0.02 | 0.02 | 78 | 1009.4 |
| 20260507075723 | 84 | 54 | 13.0 | 17.0 | 0.00 | 0.02 | 0.02 | 78 | 1009.4 |
| 20260507075219 | 85 | 40 | 9.0 | 11.0 | 0.00 | 0.02 | 0.02 | 79 | 1009.4 |
| 20260507074715 | 84 | 54 | 12.0 | 14.0 | 0.00 | 0.02 | 0.02 | 79 | 1009.4 |
| 20260507074214 | 85 | 54 | 13.0 | 16.0 | 0.00 | 0.02 | 0.02 | 79 | 1009.4 |
| 20260507073710 | 85 | 45 | 9.0 | 14.0 | 0.00 | 0.02 | 0.02 | 78 | 1009.4 |
| 20260507073206 | 85 | 61 | 8.0 | 9.0 | 0.00 | 0.02 | 0.02 | 78 | 1009.4 |
| 20260507072705 | 84 | 60 | 9.0 | 13.0 | 0.00 | 0.02 | 0.02 | 78 | 1009.4 |
| 20260507072201 | 84 | 69 | 12.0 | 13.0 | 0.00 | 0.02 | 0.02 | 78 | 1009.4 |
| 20260507071659 | 84 | 58 | 10.0 | 13.0 | 0.00 | 0.02 | 0.02 | 77 | 1009.4 |
| 20260507071155 | 84 | 62 | 12.0 | 15.0 | 0.00 | 0.02 | 0.02 | 76 | 1009.4 |
| 20260507070652 | 85 | 56 | 13.0 | 16.0 | 0.00 | 0.02 | 0.02 | 74 | 1009.1 |
| 20260507070149 | 86 | 58 | 12.0 | 17.0 | 0.00 | 0.02 | 0.02 | 73 | 1009.1 |
| 20260507065645 | 86 | 65 | 12.0 | 15.0 | 0.00 | 0.02 | 0.02 | 73 | 1009.1 |
| 20260507065142 | 86 | 56 | 17.0 | 21.0 | 0.00 | 0.02 | 0.02 | 72 | 1009.1 |
| 20260507064640 | 86 | 64 | 15.0 | 20.0 | 0.00 | 0.02 | 0.02 | 72 | 1009.1 |
| 20260507064138 | 86 | 53 | 13.0 | 17.0 | 0.00 | 0.02 | 0.02 | 73 | 1009.1 |
| 20260507063636 | 86 | 52 | 13.0 | 21.0 | 0.00 | 0.02 | 0.02 | 73 | 1009.1 |
| 20260507063132 | 86 | 53 | 16.0 | 19.0 | 0.00 | 0.02 | 0.02 | 73 | 1009.1 |
| 20260507062629 | 86 | 61 | 20.0 | 24.0 | 0.00 | 0.02 | 0.02 | 72 | 1009.1 |
| 20260507062127 | 86 | 52 | 19.0 | 26.0 | 0.00 | 0.02 | 0.02 | 73 | 1009.1 |
| 20260507061624 | 86 | 66 | 14.0 | 18.0 | 0.00 | 0.02 | 0.02 | 72 | 1009.1 |
| 20260507061122 | 86 | 64 | 17.0 | 21.0 | 0.00 | 0.02 | 0.02 | 72 | 1009.1 |
| 20260507060620 | 86 | 58 | 16.0 | 21.0 | 0.00 | 0.02 | 0.02 | 72 | 1009.1 |
| 20260507060116 | 86 | 61 | 16.0 | 21.0 | 0.00 | 0.02 | 0.02 | 71 | 1009.1 |
| 20260507055612 | 86 | 65 | 17.0 | 23.0 | 0.00 | 0.02 | 0.02 | 69 | 1009.1 |
| 20260507055108 | 86 | 59 | 19.0 | 26.0 | 0.00 | 0.02 | 0.02 | 70 | 1009.1 |
| 20260507054604 | 87 | 57 | 18.0 | 25.0 | 0.00 | 0.02 | 0.02 | 71 | 1009.1 |
| 20260507054101 | 86 | 49 | 16.0 | 22.0 | 0.00 | 0.02 | 0.02 | 73 | 1008.8 |
| 20260507053559 | 87 | 63 | 13.0 | 16.0 | 0.00 | 0.02 | 0.02 | 73 | 1009.1 |
| 20260507053058 | 87 | 70 | 18.0 | 23.0 | 0.00 | 0.02 | 0.02 | 71 | 1008.8 |
| 20260507052555 | 87 | 58 | 15.0 | 23.0 | 0.00 | 0.02 | 0.02 | 71 | 1008.8 |
| 20260507052051 | 87 | 58 | 15.0 | 19.0 | 0.00 | 0.02 | 0.02 | 71 | 1008.8 |
| 20260507051549 | 87 | 72 | 15.0 | 20.0 | 0.00 | 0.02 | 0.02 | 72 | 1008.8 |
| 20260507051046 | 87 | 44 | 17.0 | 21.0 | 0.00 | 0.02 | 0.02 | 70 | 1009.1 |
| 20260507050542 | 87 | 59 | 16.0 | 21.0 | 0.00 | 0.02 | 0.02 | 70 | 1009.1 |
| 20260507050039 | 86 | 59 | 16.0 | 22.0 | 0.00 | 0.02 | 0.02 | 74 | 1009.1 |
| 20260507045536 | 86 | 63 | 16.0 | 20.0 | 0.00 | 0.02 | 0.02 | 74 | 1009.1 |
| 20260507045033 | 86 | 89 | 13.0 | 19.0 | 0.00 | 0.02 | 0.02 | 73 | 1009.1 |
| 20260507044529 | 86 | 77 | 12.0 | 18.0 | 0.00 | 0.02 | 0.02 | 72 | 1009.1 |
| 20260507044026 | 87 | 75 | 15.0 | 18.0 | 0.00 | 0.02 | 0.02 | 71 | 1009.1 |
| 20260507043522 | 87 | 68 | 14.0 | 17.0 | 0.00 | 0.02 | 0.02 | 72 | 1009.1 |
| 20260507043020 | 87 | 69 | 17.0 | 22.0 | 0.00 | 0.02 | 0.02 | 72 | 1009.1 |
| 20260507042516 | 86 | 72 | 16.0 | 20.0 | 0.00 | 0.02 | 0.02 | 73 | 1009.4 |
| 20260507042011 | 86 | 86 | 11.0 | 18.0 | 0.00 | 0.02 | 0.02 | 74 | 1009.4 |
| 20260507041509 | 86 | 74 | 16.0 | 19.0 | 0.00 | 0.02 | 0.02 | 74 | 1009.4 |
| 20260507041005 | 86 | 81 | 11.0 | 15.0 | 0.00 | 0.02 | 0.02 | 73 | 1009.4 |
| 20260507040501 | 87 | 78 | 13.0 | 16.0 | 0.00 | 0.02 | 0.02 | 72 | 1009.8 |
| 20260507035957 | 87 | 62 | 13.0 | 17.0 | 0.00 | 0.02 | 0.02 | 71 | 1009.8 |
| 20260507035454 | 87 | 89 | 14.0 | 18.0 | 0.00 | 0.02 | 0.02 | 71 | 1009.8 |
| 20260507034950 | 87 | 89 | 13.0 | 16.0 | 0.00 | 0.02 | 0.02 | 71 | 1009.8 |
| 20260507034447 | 87 | 65 | 18.0 | 23.0 | 0.00 | 0.02 | 0.02 | 71 | 1009.8 |
| 20260507033945 | 86 | 69 | 19.0 | 23.0 | 0.00 | 0.02 | 0.02 | 74 | 1009.8 |
| 20260507033443 | 86 | 64 | 17.0 | 19.0 | 0.00 | 0.02 | 0.02 | 73 | 1010.1 |
| 20260507032940 | 87 | 76 | 15.0 | 20.0 | 0.00 | 0.02 | 0.02 | 72 | 1009.8 |
| 20260507032437 | 87 | 62 | 14.0 | 19.0 | 0.00 | 0.02 | 0.02 | 72 | 1010.1 |
| 20260507031933 | 87 | 97 | 11.0 | 20.0 | 0.00 | 0.02 | 0.02 | 72 | 1010.1 |
| 20260507031429 | 87 | 74 | 16.0 | 21.0 | 0.00 | 0.02 | 0.02 | 72 | 1010.1 |
| 20260507030926 | 86 | 69 | 17.0 | 21.0 | 0.00 | 0.02 | 0.02 | 71 | 1010.1 |
| 20260507030424 | 87 | 67 | 17.0 | 23.0 | 0.00 | 0.02 | 0.02 | 74 | 1010.1 |
| 20260507025921 | 87 | 92 | 11.0 | 15.0 | 0.00 | 0.02 | 0.02 | 76 | 1010.1 |
| 20260507025418 | 86 | 87 | 9.0 | 13.0 | 0.00 | 0.02 | 0.02 | 78 | 1010.5 |
| 20260507024916 | 86 | 42 | 13.0 | 18.0 | 0.00 | 0.02 | 0.02 | 78 | 1010.5 |
| 20260507024413 | 86 | 80 | 17.0 | 21.0 | 0.00 | 0.02 | 0.02 | 76 | 1010.5 |
| 20260507023908 | 86 | 67 | 14.0 | 19.0 | 0.00 | 0.02 | 0.02 | 76 | 1010.5 |
| 20260507023405 | 86 | 70 | 14.0 | 18.0 | 0.00 | 0.02 | 0.02 | 78 | 1010.5 |
| 20260507022903 | 85 | 61 | 11.0 | 16.0 | 0.00 | 0.02 | 0.02 | 79 | 1010.5 |
| 20260507022359 | 85 | 93 | 10.0 | 14.0 | 0.00 | 0.02 | 0.02 | 80 | 1010.5 |
| 20260507021855 | 85 | 71 | 10.0 | 14.0 | 0.00 | 0.02 | 0.02 | 84 | 1010.8 |
| 20260507021350 | 82 | 76 | 5.0 | 6.0 | 0.00 | 0.02 | 0.02 | 85 | 1010.8 |
| 20260507020848 | 81 | 90 | 7.0 | 8.0 | 0.00 | 0.02 | 0.02 | 85 | 1011.1 |
| 20260507020345 | 81 | 93 | 6.0 | 9.0 | 0.00 | 0.02 | 0.02 | 85 | 1011.1 |
| 20260507015842 | 80 | 89 | 9.0 | 12.0 | 0.00 | 0.02 | 0.02 | 85 | 1011.1 |
| 20260507015340 | 81 | 78 | 11.0 | 15.0 | 0.00 | 0.01 | 0.01 | 84 | 1011.1 |
| 20260507014837 | 82 | 93 | 13.0 | 21.0 | 0.00 | 0.00 | 0.00 | 81 | 1011.1 |
| 20260507014333 | 85 | 85 | 20.0 | 27.0 | 0.00 | 0.00 | 0.00 | 79 | 1011.1 |
| 20260507013830 | 84 | 88 | 10.0 | 13.0 | 0.00 | 0.00 | 0.00 | 80 | 1011.1 |
| 20260507013327 | 84 | 90 | 12.0 | 16.0 | 0.00 | 0.00 | 0.00 | 81 | 1011.1 |
| 20260507012824 | 85 | 70 | 15.0 | 18.0 | 0.00 | 0.00 | 0.00 | 77 | 1011.1 |
| 20260507012320 | 86 | 85 | 12.0 | 15.0 | 0.00 | 0.00 | 0.00 | 75 | 1011.1 |
| 20260507011817 | 85 | 102 | 12.0 | 18.0 | 0.00 | 0.00 | 0.00 | 75 | 1011.1 |
| 20260507011314 | 86 | 72 | 15.0 | 18.0 | 0.00 | 0.00 | 0.00 | 75 | 1011.1 |
| 20260507010814 | 85 | 86 | 17.0 | 22.0 | 0.00 | 0.00 | 0.00 | 74 | 1011.1 |
| 20260507010310 | 86 | 77 | 15.0 | 19.0 | 0.00 | 0.00 | 0.00 | 73 | 1011.1 |
| 20260507005807 | 86 | 67 | 14.0 | 19.0 | 0.00 | 0.00 | 0.00 | 75 | 1011.5 |
| 20260507005305 | 86 | 67 | 15.0 | 19.0 | 0.00 | 0.00 | 0.00 | 74 | 1011.5 |
| 20260507004800 | 86 | 72 | 13.0 | 15.0 | 0.00 | 0.00 | 0.00 | 73 | 1011.5 |
| 20260507004258 | 86 | 79 | 13.0 | 17.0 | 0.00 | 0.00 | 0.00 | 74 | 1011.5 |
| 20260507003754 | 86 | 65 | 13.0 | 18.0 | 0.00 | 0.00 | 0.00 | 73 | 1011.5 |
| 20260507003249 | 87 | 91 | 17.0 | 22.0 | 0.00 | 0.00 | 0.00 | 72 | 1011.8 |
| 20260507002745 | 86 | 77 | 9.0 | 12.0 | 0.00 | 0.00 | 0.00 | 75 | 1011.5 |
| 20260507002242 | 86 | 61 | 15.0 | 19.0 | 0.00 | 0.00 | 0.00 | 74 | 1011.5 |
| 20260507001739 | 86 | 88 | 13.0 | 20.0 | 0.00 | 0.00 | 0.00 | 73 | 1011.8 |
| 20260507001236 | 86 | 89 | 12.0 | 17.0 | 0.00 | 0.00 | 0.00 | 74 | 1011.8 |
| 20260507000732 | 86 | 64 | 12.0 | 17.0 | 0.00 | 0.00 | 0.00 | 73 | 1011.8 |
| 20260507000228 | 86 | 88 | 13.0 | 18.0 | 0.00 | 0.00 | 0.00 | 73 | 1011.8 |
| 20260506235725 | 86 | 83 | 15.0 | 21.0 | 0.00 | 0.00 | 0.00 | 72 | 1011.8 |
| 20260506235220 | 86 | 74 | 15.0 | 18.0 | 0.00 | 0.00 | 0.00 | 73 | 1011.8 |
| 20260506234718 | 86 | 56 | 17.0 | 19.0 | 0.00 | 0.00 | 0.00 | 73 | 1011.8 |
| 20260506234215 | 86 | 76 | 12.0 | 17.0 | 0.00 | 0.00 | 0.00 | 73 | 1011.8 |
| 20260506233712 | 86 | 68 | 13.0 | 19.0 | 0.00 | 0.00 | 0.00 | 74 | 1011.8 |
| 20260506233209 | 85 | 53 | 13.0 | 16.0 | 0.00 | 0.00 | 0.00 | 76 | 1011.8 |
| 20260506232706 | 85 | 95 | 15.0 | 21.0 | 0.00 | 0.00 | 0.00 | 76 | 1011.8 |
| 20260506232200 | 85 | 67 | 14.0 | 18.0 | 0.00 | 0.00 | 0.00 | 78 | 1011.8 |
| 20260506231658 | 84 | 76 | 15.0 | 18.0 | 0.00 | 0.00 | 0.00 | 79 | 1011.8 |
| 20260506231156 | 84 | 76 | 12.0 | 15.0 | 0.00 | 0.00 | 0.00 | 79 | 1011.8 |
| 20260506230652 | 85 | 62 | 12.0 | 15.0 | 0.00 | 0.00 | 0.00 | 78 | 1011.8 |
| 20260506230149 | 85 | 66 | 13.0 | 16.0 | 0.00 | 0.00 | 0.00 | 79 | 1011.8 |
| 20260506225646 | 84 | 68 | 13.0 | 16.0 | 0.00 | 0.00 | 0.00 | 79 | 1011.5 |
| 20260506225143 | 84 | 68 | 14.0 | 17.0 | 0.00 | 0.00 | 0.00 | 79 | 1011.5 |
| 20260506224639 | 84 | 85 | 12.0 | 17.0 | 0.00 | 0.00 | 0.00 | 79 | 1011.5 |
| 20260506224136 | 84 | 74 | 9.0 | 13.0 | 0.00 | 0.00 | 0.00 | 80 | 1011.5 |
| 20260506223632 | 84 | 57 | 9.0 | 13.0 | 0.00 | 0.00 | 0.00 | 81 | 1011.5 |
| 20260506223128 | 84 | 65 | 10.0 | 14.0 | 0.00 | 0.00 | 0.00 | 80 | 1011.5 |
| 20260506222625 | 84 | 69 | 8.0 | 11.0 | 0.00 | 0.00 | 0.00 | 80 | 1011.5 |
| 20260506222122 | 84 | 85 | 9.0 | 13.0 | 0.00 | 0.00 | 0.00 | 81 | 1011.5 |
| 20260506221619 | 84 | 66 | 9.0 | 13.0 | 0.00 | 0.00 | 0.00 | 81 | 1011.5 |
| 20260506221117 | 83 | 63 | 12.0 | 14.0 | 0.00 | 0.00 | 0.00 | 82 | 1011.5 |
| 20260506220614 | 83 | 67 | 9.0 | 13.0 | 0.00 | 0.00 | 0.00 | 83 | 1011.5 |
| 20260506220109 | 83 | 57 | 9.0 | 10.0 | 0.00 | 0.00 | 0.00 | 83 | 1011.5 |
| 20260506215606 | 83 | 71 | 6.0 | 9.0 | 0.00 | 0.00 | 0.00 | 83 | 1011.5 |
| 20260506215101 | 82 | 83 | 6.0 | 8.0 | 0.00 | 0.00 | 0.00 | 84 | 1011.5 |
| 20260506214559 | 82 | 65 | 6.0 | 6.0 | 0.00 | 0.00 | 0.00 | 84 | 1011.5 |
| 20260506214056 | 82 | 59 | 6.0 | 8.0 | 0.00 | 0.00 | 0.00 | 84 | 1011.5 |
| 20260506213554 | 82 | 60 | 6.0 | 8.0 | 0.00 | 0.00 | 0.00 | 84 | 1011.1 |
| 20260506213051 | 82 | 54 | 6.0 | 8.0 | 0.00 | 0.00 | 0.00 | 84 | 1011.1 |
| 20260506212547 | 81 | 54 | 5.0 | 7.0 | 0.00 | 0.00 | 0.00 | 84 | 1011.5 |
| 20260506212042 | 81 | 57 | 6.0 | 8.0 | 0.00 | 0.00 | 0.00 | 84 | 1011.5 |
| 20260506211538 | 81 | 53 | 6.0 | 8.0 | 0.00 | 0.00 | 0.00 | 84 | 1011.5 |
| 20260506211036 | 81 | 49 | 6.0 | 7.0 | 0.00 | 0.00 | 0.00 | 84 | 1011.5 |
| 20260506210532 | 80 | 44 | 4.0 | 5.0 | 0.00 | 0.00 | 0.00 | 85 | 1011.5 |
| 20260506210029 | 80 | 47 | 7.0 | 10.0 | 0.00 | 0.00 | 0.00 | 85 | 1011.5 |
| 20260506205526 | 80 | 51 | 7.0 | 9.0 | 0.00 | 0.00 | 0.00 | 86 | 1011.5 |
| 20260506205021 | 80 | 60 | 7.0 | 8.0 | 0.00 | 0.00 | 0.00 | 87 | 1011.1 |
| 20260506204519 | 80 | 60 | 7.0 | 9.0 | 0.00 | 0.00 | 0.00 | 87 | 1011.1 |
| 20260506204016 | 80 | 60 | 6.0 | 7.0 | 0.00 | 0.00 | 0.00 | 87 | 1011.1 |
| 20260506203514 | 79 | 51 | 5.0 | 6.0 | 0.00 | 0.00 | 0.00 | 87 | 1011.1 |
| 20260506203010 | 79 | 50 | 4.0 | 5.0 | 0.00 | 0.00 | 0.00 | 88 | 1011.1 |
| 20260506202508 | 79 | 50 | 4.0 | 4.0 | 0.00 | 0.00 | 0.00 | 88 | 1011.1 |
| 20260506202004 | 79 | 50 | 3.0 | 4.0 | 0.00 | 0.00 | 0.00 | 88 | 1011.1 |
| 20260506201502 | 79 | 50 | 3.0 | 4.0 | 0.00 | 0.00 | 0.00 | 88 | 1011.1 |
| 20260506200958 | 80 | 50 | 3.0 | 4.0 | 0.00 | 0.00 | 0.00 | 88 | 1011.1 |
| 20260506200454 | 80 | 50 | 2.0 | 3.0 | 0.00 | 0.00 | 0.00 | 88 | 1011.1 |
| 20260506195951 | 80 | 50 | 4.0 | 4.0 | 0.00 | 0.00 | 0.00 | 87 | 1011.1 |
| 20260506195448 | 80 | 59 | 4.0 | 4.0 | 0.00 | 0.00 | 0.00 | 87 | 1011.1 |
| 20260506194944 | 80 | 59 | 5.0 | 6.0 | 0.00 | 0.00 | 0.00 | 87 | 1010.8 |
| 20260506194442 | 80 | 49 | 4.0 | 6.0 | 0.00 | 0.00 | 0.00 | 87 | 1010.8 |
| 20260506193938 | 80 | 49 | 4.0 | 5.0 | 0.00 | 0.00 | 0.00 | 87 | 1011.1 |
| 20260506193436 | 79 | 49 | 3.0 | 4.0 | 0.00 | 0.00 | 0.00 | 87 | 1010.8 |
| 20260506192932 | 79 | 53 | 5.0 | 5.0 | 0.00 | 0.00 | 0.00 | 87 | 1010.8 |
| 20260506192429 | 80 | 56 | 3.0 | 4.0 | 0.00 | 0.00 | 0.00 | 87 | 1010.8 |
| 20260506191926 | 80 | 60 | 5.0 | 6.0 | 0.00 | 0.00 | 0.00 | 87 | 1010.8 |
| 20260506191422 | 80 | 65 | 6.0 | 8.0 | 0.00 | 0.00 | 0.00 | 87 | 1010.8 |
| 20260506190919 | 80 | 58 | 6.0 | 8.0 | 0.00 | 0.00 | 0.00 | 88 | 1010.8 |
| 20260506190416 | 80 | 61 | 9.0 | 12.0 | 0.00 | 0.00 | 0.00 | 87 | 1010.8 |
| 20260506185913 | 80 | 47 | 8.0 | 10.0 | 0.00 | 0.00 | 0.00 | 87 | 1010.8 |
| 20260506185410 | 80 | 51 | 4.0 | 6.0 | 0.00 | 0.00 | 0.00 | 87 | 1010.8 |
| 20260506184907 | 80 | 50 | 4.0 | 5.0 | 0.00 | 0.00 | 0.00 | 87 | 1010.5 |
| 20260506184404 | 80 | 46 | 5.0 | 6.0 | 0.00 | 0.00 | 0.00 | 87 | 1010.5 |
| 20260506183901 | 80 | 54 | 3.0 | 4.0 | 0.00 | 0.00 | 0.00 | 87 | 1010.5 |
| 20260506183356 | 80 | 56 | 5.0 | 6.0 | 0.00 | 0.00 | 0.00 | 86 | 1010.5 |
| 20260506182854 | 80 | 54 | 4.0 | 5.0 | 0.00 | 0.00 | 0.00 | 86 | 1010.8 |
| 20260506182351 | 80 | 62 | 5.0 | 6.0 | 0.00 | 0.00 | 0.00 | 86 | 1010.8 |
| 20260506181848 | 80 | 52 | 4.0 | 5.0 | 0.00 | 0.00 | 0.00 | 87 | 1010.8 |
| 20260506181346 | 80 | 50 | 3.0 | 4.0 | 0.00 | 0.00 | 0.00 | 87 | 1010.8 |
| 20260506180843 | 80 | 50 | 4.0 | 4.0 | 0.00 | 0.00 | 0.00 | 87 | 1010.8 |
| 20260506180339 | 80 | 50 | 2.0 | 3.0 | 0.00 | 0.00 | 0.00 | 87 | 1010.8 |
| 20260506175835 | 80 | 50 | 3.0 | 4.0 | 0.00 | 0.00 | 0.00 | 87 | 1010.8 |
| 20260506175332 | 80 | 50 | 4.0 | 5.0 | 0.00 | 0.00 | 0.00 | 87 | 1010.5 |
| 20260506174829 | 80 | 50 | 4.0 | 5.0 | 0.00 | 0.00 | 0.00 | 87 | 1010.5 |
| 20260506174327 | 80 | 57 | 4.0 | 5.0 | 0.00 | 0.00 | 0.00 | 87 | 1010.8 |
| 20260506173824 | 80 | 60 | 4.0 | 5.0 | 0.00 | 0.00 | 0.00 | 87 | 1010.8 |
| 20260506173321 | 80 | 69 | 4.0 | 5.0 | 0.00 | 0.00 | 0.00 | 87 | 1010.8 |
| 20260506172818 | 80 | 50 | 4.0 | 5.0 | 0.00 | 0.00 | 0.00 | 87 | 1010.8 |
| 20260506172315 | 80 | 50 | 4.0 | 5.0 | 0.00 | 0.00 | 0.00 | 87 | 1010.8 |
| 20260506171812 | 80 | 50 | 3.0 | 4.0 | 0.00 | 0.00 | 0.00 | 88 | 1010.5 |
| 20260506171309 | 80 | 89 | 2.0 | 3.0 | 0.00 | 0.00 | 0.00 | 88 | 1010.5 |
| 20260506170807 | 80 | 54 | 3.0 | 3.0 | 0.00 | 0.00 | 0.00 | 88 | 1010.5 |
| 20260506170303 | 80 | 54 | 3.0 | 4.0 | 0.00 | 0.00 | 0.00 | 87 | 1010.8 |
| 20260506165802 | 80 | 54 | 2.0 | 3.0 | 0.00 | 0.00 | 0.00 | 87 | 1010.8 |
| 20260506165259 | 80 | 54 | 1.0 | 3.0 | 0.00 | 0.00 | 0.00 | 87 | 1010.8 |
| 20260506164755 | 80 | 54 | 2.0 | 4.0 | 0.00 | 0.00 | 0.00 | 87 | 1010.8 |
| 20260506164252 | 80 | 54 | 2.0 | 3.0 | 0.00 | 0.00 | 0.00 | 87 | 1010.8 |
| 20260506163749 | 80 | 54 | 3.0 | 3.0 | 0.00 | 0.00 | 0.00 | 87 | 1010.8 |
| 20260506163244 | 80 | 54 | 3.0 | 3.0 | 0.00 | 0.00 | 0.00 | 87 | 1011.1 |
| 20260506162740 | 80 | 54 | 3.0 | 4.0 | 0.00 | 0.00 | 0.00 | 87 | 1011.1 |
| 20260506162238 | 80 | 54 | 4.0 | 4.0 | 0.00 | 0.00 | 0.00 | 87 | 1011.1 |
| 20260506161735 | 80 | 63 | 4.0 | 4.0 | 0.00 | 0.00 | 0.00 | 87 | 1011.1 |
| 20260506161232 | 80 | 72 | 5.0 | 7.0 | 0.00 | 0.00 | 0.00 | 87 | 1011.5 |
| 20260506153039 | 80 | 75 | 6.0 | 7.0 | 0.00 | 0.00 | 0.00 | 87 | 1011.5 |
| 20260506152536 | 80 | 75 | 6.0 | 7.0 | 0.00 | 0.00 | 0.00 | 87 | 1011.5 |
| 20260506152034 | 80 | 76 | 6.0 | 8.0 | 0.00 | 0.00 | 0.00 | 87 | 1011.5 |
| 20260506151532 | 80 | 83 | 6.0 | 7.0 | 0.00 | 0.00 | 0.00 | 87 | 1011.5 |
| 20260506151029 | 80 | 75 | 5.0 | 6.0 | 0.00 | 0.00 | 0.00 | 88 | 1011.5 |
| 20260506150525 | 80 | 74 | 5.0 | 7.0 | 0.00 | 0.00 | 0.00 | 88 | 1011.5 |
| 20260506150022 | 80 | 55 | 5.0 | 7.0 | 0.00 | 0.00 | 0.00 | 88 | 1011.5 |
| 20260506145519 | 80 | 54 | 3.0 | 4.0 | 0.00 | 0.00 | 0.00 | 88 | 1011.5 |
| 20260506145016 | 80 | 72 | 3.0 | 4.0 | 0.00 | 0.00 | 0.00 | 88 | 1011.8 |
| 20260506144513 | 80 | 81 | 3.0 | 4.0 | 0.00 | 0.00 | 0.00 | 87 | 1011.8 |
| 20260506144011 | 80 | 63 | 4.0 | 5.0 | 0.00 | 0.00 | 0.00 | 87 | 1011.8 |
| 20260506143508 | 80 | 61 | 4.0 | 6.0 | 0.00 | 0.00 | 0.00 | 87 | 1012.2 |
| 20260506143007 | 80 | 73 | 6.0 | 7.0 | 0.00 | 0.00 | 0.00 | 87 | 1012.2 |
| 20260506142504 | 80 | 63 | 4.0 | 4.0 | 0.00 | 0.00 | 0.00 | 87 | 1012.2 |
| 20260506142001 | 80 | 45 | 0.0 | 3.0 | 0.00 | 0.00 | 0.00 | 87 | 1012.2 |
| 20260506141459 | 80 | 45 | 3.0 | 3.0 | 0.00 | 0.00 | 0.00 | 87 | 1012.2 |
| 20260506140957 | 80 | 45 | 1.0 | 3.0 | 0.00 | 0.00 | 0.00 | 87 | 1012.2 |
| 20260506140454 | 80 | 45 | 4.0 | 4.0 | 0.00 | 0.00 | 0.00 | 87 | 1012.5 |
| 20260506135951 | 80 | 45 | 3.0 | 4.0 | 0.00 | 0.18 | 0.18 | 87 | 1012.5 |
| 20260506135448 | 80 | 56 | 3.0 | 5.0 | 0.00 | 0.18 | 0.18 | 87 | 1012.5 |
| 20260506134944 | 80 | 56 | 3.0 | 3.0 | 0.00 | 0.18 | 0.18 | 87 | 1012.5 |
| 20260506134440 | 80 | 56 | 3.0 | 4.0 | 0.00 | 0.18 | 0.18 | 86 | 1012.5 |
| 20260506133937 | 81 | 56 | 4.0 | 4.0 | 0.00 | 0.18 | 0.18 | 86 | 1012.5 |
| 20260506133434 | 81 | 63 | 4.0 | 4.0 | 0.00 | 0.18 | 0.18 | 86 | 1012.5 |
| 20260506132931 | 81 | 60 | 5.0 | 7.0 | 0.00 | 0.18 | 0.18 | 86 | 1012.5 |
| 20260506132428 | 81 | 60 | 4.0 | 4.0 | 0.00 | 0.18 | 0.18 | 86 | 1012.5 |
| 20260506131925 | 81 | 60 | 5.0 | 6.0 | 0.00 | 0.18 | 0.18 | 86 | 1012.5 |
| 20260506131422 | 81 | 60 | 5.0 | 6.0 | 0.00 | 0.18 | 0.18 | 86 | 1012.8 |
| 20260506130919 | 81 | 59 | 4.0 | 4.0 | 0.00 | 0.18 | 0.18 | 86 | 1012.8 |
| 20260506130415 | 81 | 64 | 4.0 | 5.0 | 0.00 | 0.18 | 0.18 | 86 | 1012.8 |
| 20260506125914 | 81 | 76 | 3.0 | 4.0 | 0.00 | 0.18 | 0.18 | 86 | 1012.8 |
| 20260506125412 | 81 | 73 | 4.0 | 4.0 | 0.00 | 0.18 | 0.18 | 86 | 1012.8 |
| 20260506124910 | 81 | 59 | 4.0 | 5.0 | 0.00 | 0.18 | 0.18 | 86 | 1012.5 |
| 20260506124406 | 81 | 48 | 4.0 | 5.0 | 0.00 | 0.18 | 0.18 | 86 | 1012.5 |
| 20260506123904 | 81 | 48 | 4.0 | 5.0 | 0.00 | 0.18 | 0.18 | 86 | 1012.5 |
| 20260506123402 | 81 | 48 | 4.0 | 4.0 | 0.00 | 0.18 | 0.18 | 86 | 1012.5 |
| 20260506122859 | 81 | 58 | 3.0 | 4.0 | 0.00 | 0.18 | 0.18 | 87 | 1012.5 |
| 20260506122356 | 81 | 58 | 5.0 | 5.0 | 0.00 | 0.18 | 0.18 | 87 | 1012.5 |
| 20260506121854 | 81 | 81 | 4.0 | 6.0 | 0.00 | 0.18 | 0.18 | 86 | 1012.5 |
| 20260506121351 | 81 | 57 | 4.0 | 5.0 | 0.00 | 0.18 | 0.18 | 86 | 1012.5 |
| 20260506120848 | 81 | 59 | 4.0 | 5.0 | 0.00 | 0.18 | 0.18 | 86 | 1012.5 |
| 20260506120346 | 81 | 56 | 4.0 | 5.0 | 0.00 | 0.18 | 0.18 | 86 | 1012.5 |
| 20260506115843 | 81 | 56 | 5.0 | 6.0 | 0.00 | 0.18 | 0.18 | 86 | 1012.5 |
| 20260506115341 | 81 | 53 | 4.0 | 6.0 | 0.00 | 0.18 | 0.18 | 86 | 1012.5 |
| 20260506114839 | 81 | 54 | 3.0 | 4.0 | 0.00 | 0.18 | 0.18 | 86 | 1012.5 |
| 20260506114336 | 81 | 69 | 4.0 | 5.0 | 0.00 | 0.18 | 0.18 | 86 | 1012.5 |
| 20260506113835 | 81 | 59 | 5.0 | 6.0 | 0.00 | 0.18 | 0.18 | 86 | 1012.5 |
| 20260506113332 | 81 | 63 | 6.0 | 7.0 | 0.00 | 0.18 | 0.18 | 86 | 1012.5 |
| 20260506112828 | 81 | 53 | 3.0 | 4.0 | 0.00 | 0.18 | 0.18 | 86 | 1012.2 |
| 20260506112325 | 81 | 80 | 4.0 | 5.0 | 0.00 | 0.18 | 0.18 | 86 | 1012.5 |
| 20260506111823 | 81 | 91 | 3.0 | 4.0 | 0.00 | 0.18 | 0.18 | 86 | 1012.2 |
| 20260506111321 | 81 | 80 | 2.0 | 3.0 | 0.00 | 0.18 | 0.18 | 86 | 1012.2 |
| 20260506110818 | 81 | 62 | 4.0 | 5.0 | 0.00 | 0.18 | 0.18 | 86 | 1012.2 |
| 20260506110315 | 81 | 61 | 5.0 | 6.0 | 0.00 | 0.18 | 0.18 | 85 | 1012.2 |
| 20260506105812 | 81 | 71 | 6.0 | 7.0 | 0.00 | 0.18 | 0.18 | 85 | 1012.2 |
| 20260506105308 | 81 | 79 | 6.0 | 8.0 | 0.00 | 0.18 | 0.18 | 85 | 1012.2 |
| 20260506104806 | 81 | 86 | 5.0 | 7.0 | 0.00 | 0.18 | 0.18 | 85 | 1012.2 |
| 20260506104304 | 81 | 80 | 7.0 | 8.0 | 0.00 | 0.18 | 0.18 | 86 | 1012.2 |